Hourly Weather Kozlice

Today, 31 October, Saturday

Time Temperature Precipitation Wind Pressure Humidity
00:00 +12°C° 0.6 mm 5 mps 747 mmHg 94%
01:00 +12°C° 0 mm 5 mps 748 mmHg 94%
02:00 +12°C° 0.8 mm 5 mps 748 mmHg 95%
03:00 +12°C° 0.8 mm 4 mps 748 mmHg 96%
04:00 +12°C° 0.8 mm 4 mps 748 mmHg 96%
05:00 +12°C° 0.4 mm 3 mps 749 mmHg 96%
06:00 +12°C° 0.4 mm 2 mps 749 mmHg 96%
07:00 +12°C° 0.4 mm 2 mps 749 mmHg 96%
08:00 +12°C° 0.1 mm 2 mps 750 mmHg 95%
09:00 +12°C° 0.1 mm 1 mps 750 mmHg 94%
10:00 +12°C° 0.1 mm 1 mps 750 mmHg 92%
11:00 +13°C° 0 mm 1 mps 750 mmHg 90%
12:00 +13°C° 0 mm 1 mps 751 mmHg 88%
13:00 +13°C° 0 mm 1 mps 751 mmHg 85%
14:00 +13°C° 0 mm 1 mps 751 mmHg 86%
15:00 +13°C° 0 mm 2 mps 750 mmHg 87%
16:00 +13°C° 0 mm 2 mps 750 mmHg 89%
17:00 +12°C° 0 mm 2 mps 750 mmHg 90%
18:00 +12°C° 0 mm 2 mps 750 mmHg 91%
19:00 +10°C° 0 mm 2 mps 750 mmHg 93%
20:00 +10°C° 0 mm 2 mps 750 mmHg 93%
21:00 +9°C° 0 mm 3 mps 750 mmHg 93%
22:00 +9°C° 0 mm 3 mps 750 mmHg 93%
23:00 +9°C° 0 mm 3 mps 749 mmHg 93%

Tomorrow, 1 November, Sunday

Time Temperature Precipitation Wind Pressure Humidity
00:00 +9°C° 0 mm 3 mps 749 mmHg 93%
01:00 +8°C° 0 mm 3 mps 749 mmHg 93%
02:00 +9°C° 0 mm 3 mps 749 mmHg 92%
03:00 +9°C° 0 mm 3 mps 748 mmHg 92%
04:00 +9°C° 0 mm 3 mps 748 mmHg 91%
05:00 +9°C° 0 mm 3 mps 747 mmHg 92%
06:00 +9°C° 0 mm 2 mps 747 mmHg 92%
07:00 +9°C° 0 mm 2 mps 747 mmHg 92%
08:00 +10°C° 0 mm 2 mps 747 mmHg 89%
09:00 +12°C° 0 mm 2 mps 747 mmHg 85%
10:00 +13°C° 0 mm 2 mps 746 mmHg 82%
11:00 +12°C° 0 mm 3 mps 746 mmHg 81%
12:00 +13°C° 0 mm 3 mps 746 mmHg 80%
13:00 +13°C° 0 mm 3 mps 745 mmHg 79%
14:00 +12°C° 1.1 mm 4 mps 745 mmHg 82%
15:00 +12°C° 1.1 mm 4 mps 745 mmHg 86%
16:00 +11°C° 1.1 mm 4 mps 744 mmHg 89%
17:00 +11°C° 0.3 mm 4 mps 744 mmHg 89%
18:00 +11°C° 0.3 mm 3 mps 744 mmHg 88%
19:00 +11°C° 0.3 mm 3 mps 744 mmHg 88%
20:00 +11°C° 0.3 mm 3 mps 743 mmHg 88%
21:00 +11°C° 0.3 mm 3 mps 743 mmHg 89%
22:00 +12°C° 0.3 mm 4 mps 743 mmHg 89%
23:00 +12°C° 0.1 mm 4 mps 743 mmHg 89%

Day after tomorrow, 2 November, Monday

Time Temperature Precipitation Wind Pressure Humidity
00:00 +12°C° 0.1 mm 4 mps 743 mmHg 89%
01:00 +13°C° 0.1 mm 4 mps 743 mmHg 88%
02:00 +13°C° 0 mm 4 mps 743 mmHg 89%
03:00 +13°C° 0 mm 4 mps 743 mmHg 89%
04:00 +13°C° 0 mm 4 mps 744 mmHg 90%
05:00 +13°C° 0 mm 4 mps 744 mmHg 91%
06:00 +13°C° 0 mm 3 mps 744 mmHg 91%
07:00 +12°C° 0 mm 3 mps 744 mmHg 92%
08:00 +14°C° 0.1 mm 2 mps 745 mmHg 91%
09:00 +14°C° 0.1 mm 2 mps 745 mmHg 90%
10:00 +15°C° 0.1 mm 2 mps 745 mmHg 89%
11:00 +15°C° 0.1 mm 2 mps 745 mmHg 89%
12:00 +15°C° 0.1 mm 2 mps 745 mmHg 88%
13:00 +16°C° 0.1 mm 3 mps 745 mmHg 88%
14:00 +16°C° 0 mm 3 mps 745 mmHg 87%
15:00 +16°C° 0 mm 3 mps 745 mmHg 87%
16:00 +16°C° 0 mm 3 mps 745 mmHg 86%
17:00 +16°C° 0 mm 3 mps 745 mmHg 86%
18:00 +16°C° 0 mm 3 mps 745 mmHg 87%
19:00 +16°C° 0 mm 3 mps 745 mmHg 87%
20:00 +16°C° 0 mm 3 mps 745 mmHg 86%
21:00 +15°C° 0 mm 4 mps 745 mmHg 85%
22:00 +15°C° 0 mm 4 mps 745 mmHg 85%
23:00 +15°C° 0 mm 4 mps 745 mmHg 85%

3 November, Tuesday

Time Temperature Precipitation Wind Pressure Humidity
00:00 +15°C° 0 mm 4 mps 746 mmHg 85%
01:00 +15°C° 0 mm 4 mps 746 mmHg 85%
02:00 +15°C° 0 mm 4 mps 746 mmHg 85%
03:00 +15°C° 0 mm 4 mps 746 mmHg 86%
04:00 +16°C° 0 mm 3 mps 746 mmHg 86%
05:00 +14°C° 0.1 mm 4 mps 747 mmHg 86%
06:00 +14°C° 0.1 mm 4 mps 747 mmHg 85%
07:00 +13°C° 0.1 mm 5 mps 748 mmHg 85%
08:00 +13°C° 0 mm 5 mps 748 mmHg 80%
09:00 +13°C° 0 mm 5 mps 749 mmHg 76%
10:00 +12°C° 0 mm 5 mps 750 mmHg 71%
11:00 +13°C° 0 mm 5 mps 750 mmHg 67%
12:00 +13°C° 0 mm 5 mps 751 mmHg 63%
13:00 +13°C° 0 mm 6 mps 751 mmHg 59%
14:00 +12°C° 0 mm 5 mps 751 mmHg 62%
15:00 +12°C° 0 mm 4 mps 751 mmHg 65%
16:00 +11°C° 0 mm 3 mps 752 mmHg 68%
17:00 +10°C° 0 mm 3 mps 752 mmHg 69%
18:00 +10°C° 0 mm 3 mps 753 mmHg 69%
19:00 +10°C° 0 mm 3 mps 753 mmHg 70%
20:00 +9°C° 0 mm 3 mps 753 mmHg 70%
21:00 +9°C° 0 mm 3 mps 754 mmHg 71%
22:00 +9°C° 0 mm 3 mps 754 mmHg 71%
23:00 +8°C° 0 mm 3 mps 754 mmHg 72%

4 November, Wednesday

Time Temperature Precipitation Wind Pressure Humidity
00:00 +8°C° 0 mm 3 mps 754 mmHg 73%
01:00 +8°C° 0 mm 3 mps 754 mmHg 74%
02:00 +7°C° 0 mm 3 mps 754 mmHg 75%
03:00 +7°C° 0 mm 3 mps 754 mmHg 76%
04:00 +5°C° 0 mm 3 mps 755 mmHg 77%
05:00 +5°C° 0 mm 3 mps 755 mmHg 79%
06:00 +4°C° 0 mm 3 mps 755 mmHg 80%
07:00 +4°C° 0 mm 3 mps 755 mmHg 81%
08:00 +5°C° 0 mm 3 mps 755 mmHg 76%
09:00 +7°C° 0 mm 3 mps 755 mmHg 72%
10:00 +8°C° 0 mm 3 mps 756 mmHg 68%
11:00 +8°C° 0 mm 3 mps 756 mmHg 65%
12:00 +9°C° 0 mm 3 mps 756 mmHg 62%
13:00 +9°C° 0 mm 2 mps 756 mmHg 59%
14:00 +9°C° 0 mm 2 mps 755 mmHg 62%
15:00 +9°C° 0 mm 1 mps 755 mmHg 65%
16:00 +9°C° 0 mm 1 mps 755 mmHg 68%
17:00 +7°C° 0 mm 0 mps 755 mmHg 70%
18:00 +6°C° 0 mm 0 mps 756 mmHg 72%
19:00 +6°C° 0 mm 0 mps 756 mmHg 74%
20:00 +6°C° 0 mm 0 mps 756 mmHg 75%
21:00 +5°C° 0 mm 0 mps 756 mmHg 76%
22:00 +5°C° 0 mm 0 mps 756 mmHg 77%
23:00 +5°C° 0 mm 0 mps 757 mmHg 78%

5 November, Thursday

Time Temperature Precipitation Wind Pressure Humidity
00:00 +5°C° 0 mm 0 mps 757 mmHg 79%
01:00 +5°C° 0 mm 0 mps 757 mmHg 80%
02:00 +5°C° 0 mm 0 mps 757 mmHg 81%
03:00 +5°C° 0 mm 1 mps 757 mmHg 82%
04:00 +5°C° 0 mm 1 mps 757 mmHg 83%
05:00 +5°C° 0 mm 1 mps 757 mmHg 85%
06:00 +5°C° 0 mm 1 mps 757 mmHg 86%
07:00 +4°C° 0 mm 1 mps 758 mmHg 88%
08:00 +5°C° 0 mm 1 mps 758 mmHg 84%
09:00 +6°C° 0 mm 1 mps 758 mmHg 80%
10:00 +6°C° 0 mm 2 mps 759 mmHg 76%
11:00 +7°C° 0 mm 2 mps 759 mmHg 72%
12:00 +8°C° 0 mm 2 mps 759 mmHg 67%
13:00 +9°C° 0 mm 2 mps 759 mmHg 63%
14:00 +8°C° 0 mm 2 mps 759 mmHg 66%
15:00 +7°C° 0 mm 2 mps 759 mmHg 69%
16:00 +7°C° 0 mm 2 mps 759 mmHg 71%
17:00 +6°C° 0 mm 2 mps 760 mmHg 74%
18:00 +5°C° 0 mm 2 mps 760 mmHg 78%
19:00 +5°C° 0 mm 2 mps 760 mmHg 81%
20:00 +4°C° 0 mm 2 mps 761 mmHg 83%
21:00 +4°C° 0 mm 2 mps 761 mmHg 84%
22:00 +4°C° 0 mm 2 mps 761 mmHg 86%
23:00 +3°C° 0 mm 2 mps 761 mmHg 88%
Show more